Location: *
(60.1759°S, 155.0663°W)
Time: 21:51:38
(UTC+00:00)

Meteor 1-20 Rocket - Pass Details

Date: 17 September 2019
Orbit: 819 x 892 km, 81.2° (Epoch: 16 October)

Event Time Altitude Azimuth Distance (km) Brightness Sun altitude
Rises 15:17:23 0° 337° (NNW) 3,468 7.0 -9.0°
Reaches altitude 10° 15:19:49 10° 334° (NNW) 2,547 6.3 -8.7°
Maximum altitude 15:25:38 71° 250° (WSW) 955 4.3 -8.0°
Drops below altitude 10° 15:31:35 10° 165° (SSE) 2,603 7.1 -7.3°
Sets 15:34:06 0° 162° (SSE) 3,551 7.8 -7.0°
